FW3705 Peabody MA US current weather conditions

sailwx.info

Wind from 016 at 1 knots gusting 6

Air temperature 25.0° C
Dewpoint 12.2° C

Last reported at 2020-Aug-14 16:00 UTC.
Time now 2020-Aug-14 17:03 UTC

Location: N 42°32' W 070°55'.
View on Google Maps.

See reports from other nearby stations

  
Tides and Currents Weather Stations Pressure Air Temp Water Temp Dewpoint Dewpoint Depression Visibility Wind Speed Wind Dir Waves Ship Positions
date/time (UTC)wind fromknots sea level pressurealtimeterstation pressurevisibilityair tempwater tempwave heightnotes
2020-Aug-14 16:00 016 1 gusting 6 25.0
2020-Aug-14 15:45 032 1 gusting 6 25.6
2020-Aug-14 15:30 031 1 gusting 5 26.1
2020-Aug-14 15:16 049 1 gusting 7 26.1
2020-Aug-14 15:00 042 0 gusting 4 26.1
2020-Aug-14 14:45 030 0 gusting 4 26.1
2020-Aug-14 14:16 013 3 gusting 6 25.6
2020-Aug-14 14:00 022 0 gusting 3 25.0
2020-Aug-14 13:45 018 1 gusting 6 25.0
2020-Aug-14 13:30 012 1 gusting 9 24.4
2020-Aug-14 13:15 019 3 gusting 7 24.4
2020-Aug-14 13:00 022 1 gusting 7 23.9
2020-Aug-14 12:45 024 0 gusting 7 23.3
2020-Aug-14 12:30 021 1 gusting 5 22.8
2020-Aug-14 12:16 027 0 gusting 3 22.8
2020-Aug-14 12:01 022 0 gusting 3 22.2
2020-Aug-14 11:46 028 21.7
2020-Aug-14 11:31 355 20.6
2020-Aug-14 11:16 260 20.0
2020-Aug-14 11:01 260 19.4
2020-Aug-14 10:47 259 18.9
2020-Aug-14 10:31 259 18.9
2020-Aug-14 10:16 259 18.9
2020-Aug-14 10:01 259 18.9
2020-Aug-14 09:46 259 18.9
2020-Aug-14 09:31 259 18.9
2020-Aug-14 09:17 259 18.9
2020-Aug-14 09:01 259 18.9
2020-Aug-14 08:46 259 18.9
2020-Aug-14 08:30 259 19.4
2020-Aug-14 08:16 032 19.4
2020-Aug-14 08:00 032 18.9
2020-Aug-14 07:46 160 18.9
2020-Aug-14 07:31 161 19.4
2020-Aug-14 07:15 161 19.4
2020-Aug-14 07:00 161 20.0
2020-Aug-14 06:45 161 20.0
2020-Aug-14 06:30 161 20.0
2020-Aug-14 06:15 161 20.0
2020-Aug-14 06:00 161 20.0
2020-Aug-14 05:45 161 20.0
2020-Aug-14 05:31 161 20.0
2020-Aug-14 05:15 161 20.0
2020-Aug-14 05:00 161 20.6
2020-Aug-14 04:45 161 20.6
2020-Aug-14 04:30 161 20.6
2020-Aug-14 04:15 161 21.1
2020-Aug-14 04:00 161 21.1
2020-Aug-14 03:45 161 21.7
2020-Aug-14 03:30 161 21.7
2020-Aug-14 03:15 161 22.2
2020-Aug-14 03:00 161 22.2
2020-Aug-14 02:45 161 22.2
2020-Aug-14 02:30 161 22.8
2020-Aug-14 02:15 161 23.3
2020-Aug-14 02:00 161 23.3
2020-Aug-14 01:45 161 23.9
2020-Aug-14 01:30 161 23.9
2020-Aug-14 01:15 161 23.9
2020-Aug-14 01:00 161 23.9
2020-Aug-14 00:45 161 23.9
2020-Aug-14 00:30 161 23.9
2020-Aug-14 00:15 153 24.4
2020-Aug-14 00:00 152 24.4
2020-Aug-13 23:00 127 25.0
2020-Aug-13 22:45 110 25.0
2020-Aug-13 22:30 129 25.6
2020-Aug-13 22:15 105 25.6
2020-Aug-13 22:00 175 26.1
2020-Aug-13 21:45 144 26.1
2020-Aug-13 21:33 106 26.1
2020-Aug-13 21:17 121 26.7
2020-Aug-13 21:01 121 0 gusting 4 26.7
2020-Aug-13 20:47 115 0 gusting 6 26.7
2020-Aug-13 20:31 195 1 gusting 6 27.2
2020-Aug-13 20:16 046 27.8
2020-Aug-13 20:02 161 0 gusting 6 27.8
2020-Aug-13 19:47 091 1 gusting 6 27.8
2020-Aug-13 19:31 128 0 gusting 6 28.3
2020-Aug-13 19:16 139 0 gusting 5 28.3
2020-Aug-13 19:01 079 0 gusting 4 27.8
2020-Aug-13 18:47 069 1 gusting 4 27.8
2020-Aug-13 18:31 046 1 gusting 6 28.3
2020-Aug-13 18:18 059 1 gusting 5 28.3
2020-Aug-13 18:01 054 2 gusting 8 28.3
2020-Aug-13 17:46 068 1 gusting 4 28.9
2020-Aug-13 17:31 066 1 gusting 6 29.4
2020-Aug-13 17:16 009 0 gusting 6 29.4
2020-Aug-13 17:00 119 1 gusting 6 30.0
2020-Aug-13 16:46 079 1 gusting 3 28.9
2020-Aug-13 16:31 026 0 gusting 4 28.3
2020-Aug-13 16:16 009 1 gusting 5 28.9
2020-Aug-13 16:01 024 1 gusting 4 28.9
2020-Aug-13 15:46 069 0 gusting 5 28.9
2020-Aug-13 15:31 018 28.9
2020-Aug-13 15:15 044 0 gusting 5 28.9
2020-Aug-13 15:01 065 0 gusting 4 28.3
2020-Aug-13 14:45 028 2 gusting 7 28.3
2020-Aug-13 14:31 019 1 gusting 6 28.3
2020-Aug-13 14:15 065 1 gusting 5 27.8
2020-Aug-13 14:01 032 2 gusting 8 27.8
2020-Aug-13 13:45 022 2 gusting 7 27.8
2020-Aug-13 13:30 017 1 gusting 6 27.2
2020-Aug-13 13:15 026 0 gusting 3 26.7
2020-Aug-13 13:00 046 1 gusting 5 25.6
2020-Aug-13 12:45 022 0 gusting 4 25.0
2020-Aug-13 12:30 023 24.4
2020-Aug-13 12:15 298 23.9
2020-Aug-13 12:00 017 23.3
2020-Aug-13 11:45 284 22.8
2020-Aug-13 11:30 355 22.2
2020-Aug-13 11:16 355 21.7
2020-Aug-13 11:01 279 21.7
2020-Aug-13 10:46 346 21.1
2020-Aug-13 10:32 283 21.1
2020-Aug-13 10:16 283 21.1
2020-Aug-13 10:01 283 21.1
2020-Aug-13 09:46 283 21.1
2020-Aug-13 09:31 281 21.1
2020-Aug-13 09:16 281 21.1
2020-Aug-13 09:02 281 21.1
2020-Aug-13 08:48 281 21.1
2020-Aug-13 08:31 281 21.7
2020-Aug-13 08:16 281 21.7
2020-Aug-13 08:02 281 22.2
2020-Aug-13 07:47 281 22.2
2020-Aug-13 07:31 281 22.2
2020-Aug-13 07:16 281 22.2
2020-Aug-13 07:01 281 22.8
2020-Aug-13 06:45 281 22.8
2020-Aug-13 06:30 281 23.3
2020-Aug-13 06:15 288 23.3
2020-Aug-13 06:01 288 23.3
2020-Aug-13 05:46 288 23.3
2020-Aug-13 05:30 288 23.3
2020-Aug-13 05:15 288 23.3
2020-Aug-13 05:01 288 23.9
2020-Aug-13 04:45 024 23.3
2020-Aug-13 04:30 024 23.3
2020-Aug-13 04:15 024 23.3
2020-Aug-13 04:00 024 22.8
2020-Aug-13 03:45 024 23.3
2020-Aug-13 03:30 024 23.3
2020-Aug-13 03:15 024 23.3
2020-Aug-13 03:00 024 23.3
2020-Aug-13 02:45 024 23.3
2020-Aug-13 02:30 024 23.3
2020-Aug-13 02:15 024 23.3
2020-Aug-13 02:00 024 23.3
2020-Aug-13 01:45 024 23.9
2020-Aug-13 01:30 024 23.3
2020-Aug-13 01:15 024 23.3
2020-Aug-13 01:00 024 23.3
2020-Aug-13 00:45 024 23.3
2020-Aug-13 00:31 024 23.9
2020-Aug-13 00:16 059 23.9
2020-Aug-13 00:01 059 24.4
2020-Aug-12 23:46 059 25.0
2020-Aug-12 23:31 059 26.1
2020-Aug-12 23:15 092 26.7
2020-Aug-12 23:01 084 26.7
2020-Aug-12 22:47 084 27.2
2020-Aug-12 22:32 088 27.8
2020-Aug-12 22:16 222 27.8
2020-Aug-12 22:01 046 27.8
2020-Aug-12 21:46 090 28.3
2020-Aug-12 21:31 145 28.9
2020-Aug-12 21:16 123 0 gusting 4 28.9
2020-Aug-12 21:02 105 0 gusting 5 28.9
2020-Aug-12 20:46 101 0 gusting 5 29.4
2020-Aug-12 20:31 208 0 gusting 3 29.4
2020-Aug-12 20:16 194 0 gusting 5 29.4
2020-Aug-12 20:01 167 29.4
2020-Aug-12 19:46 076 0 gusting 5 30.0
2020-Aug-12 19:31 140 1 gusting 6 30.0
2020-Aug-12 19:16 089 2 gusting 6 29.4
2020-Aug-12 19:01 097 0 gusting 6 31.1
2020-Aug-12 18:46 122 1 gusting 4 31.7
2020-Aug-12 18:31 280 33.3
2020-Aug-12 18:16 249 1 gusting 6 32.8
2020-Aug-12 18:01 288 33.3
2020-Aug-12 17:45 238 33.9
2020-Aug-12 17:31 244 33.3
2020-Aug-12 17:16 288 33.3
2020-Aug-12 17:01 240 1 gusting 6 33.3